Weather History for Birchwood, AK

Change the Weather History Date:

Saturday, May 10, 2014

  Actual Average Record
Temperature  
Mean Temperature 52 °F -  
Max Temperature 66 °F 51 °F 66 °F (2014)
Min Temperature 39 °F 34 °F 30 °F (2000)
Degree Days  
Heating Degree Days 12    
Growing Degree Days 2 (Base 50)    
Moisture  
Dew Point 31 °F    
Average Humidity 48    
Maximum Humidity 75    
Minimum Humidity 26    
Precipitation  
Precipitation 0.00 in - - ()
Sea Level Pressure  
Sea Level Pressure 30.16 in    
Wind  
Wind Speed 5 mph (SW)    
Max Wind Speed 9 mph    
Max Gust Speed -    
Visibility 10 miles    
Events      
Averages and records for this station are not official NWS values.
T = Trace of Precipitation, MM = Missing Value Source: NWS Daily Summary

Daily Weather History Graph

Daily Weather History Graph

Search for Another Location

Airport:

Trip Planner

Search our weather history database for the weather conditions in past years. The results will help you decide how hot, cold, wet, or windy it might be!

Date:

Astronomy

May. 10, 2014 Rise Set
Actual Time 5:21 AM AKDT 10:28 PM AKDT
Civil Twilight 4:16 AM AKDT 11:35 PM AKDT
Nautical Twilight 2:26 AM AKDT 1:21 AM AKDT
Astronomical Twilight Sun does not rise Sun does not rise
Moon 5:23 PM AKDT (5/10) 4:19 AM AKDT (5/10)
Length of Visible Light 19h 19m
Length of Day
17h 06m
Waxing Gibbous, 83% of the Moon is Illuminated
May 10
Waxing Gibbous
May 14
Full
May 21
Last Quarter
May 28
New
Jun 5
First Quarter

Hourly Weather History & Observations

Time (AKDT) Temp. Windchill Dew Point Humidity Pressure Visibility Wind Dir Wind Speed Gust Speed Precip Events Conditions
12:16 AM 53.6 °F - 28.4 °F 38% 30.10 in 10.0 mi SSW 5.8 mph - N/A   Clear
12:36 AM 51.8 °F - 28.4 °F 41% 30.10 in 10.0 mi South 9.2 mph - N/A   Partly Cloudy
12:56 AM 50.0 °F - 30.2 °F 47% 30.11 in 10.0 mi SSW 5.8 mph - N/A   Clear
1:36 AM 48.2 °F - 30.2 °F 50% 30.11 in 10.0 mi South 6.9 mph - N/A   Clear
1:56 AM 46.4 °F 44.3 °F 30.2 °F 53% 30.12 in 10.0 mi SSW 4.6 mph - N/A   Clear
2:16 AM 48.2 °F - 30.2 °F 50% 30.12 in 10.0 mi SSE 4.6 mph - N/A   Clear
2:36 AM 46.4 °F 44.3 °F 30.2 °F 53% 30.13 in 10.0 mi SE 4.6 mph - N/A   Clear
2:56 AM 46.4 °F 45.2 °F 30.2 °F 53% 30.13 in 10.0 mi South 3.5 mph - N/A   Clear
3:16 AM 44.6 °F 41.4 °F 30.2 °F 57% 30.14 in 10.0 mi South 5.8 mph - N/A   Clear
3:36 AM 44.6 °F 41.4 °F 30.2 °F 57% 30.14 in 10.0 mi SSW 5.8 mph - N/A   Clear
3:56 AM 44.6 °F 42.2 °F 30.2 °F 57% 30.14 in 10.0 mi SSW 4.6 mph - N/A   Clear
4:16 AM 42.8 °F 41.1 °F 30.2 °F 61% 30.15 in 10.0 mi South 3.5 mph - N/A   Clear
4:36 AM 42.8 °F 39.3 °F 30.2 °F 61% 30.15 in 10.0 mi SSW 5.8 mph - N/A   Clear
4:56 AM 41.0 °F 37.1 °F 30.2 °F 65% 30.15 in 10.0 mi SSW 5.8 mph - N/A   Clear
5:16 AM 39.2 °F 35.9 °F 30.2 °F 70% 30.16 in 10.0 mi South 4.6 mph - N/A   Clear
5:36 AM 39.2 °F 37.0 °F 30.2 °F 70% 30.16 in 10.0 mi SSE 3.5 mph - N/A   Clear
5:56 AM 41.0 °F 39.0 °F 32.0 °F 70% 30.16 in 10.0 mi SSE 3.5 mph - N/A   Clear
6:16 AM 39.2 °F - 32.0 °F 75% 30.17 in 10.0 mi Calm Calm - N/A   Clear
6:36 AM 39.2 °F 37.0 °F 32.0 °F 75% 30.17 in 10.0 mi South 3.5 mph - N/A   Clear
6:56 AM 42.8 °F - 32.0 °F 66% 30.17 in 10.0 mi Calm Calm - N/A   Clear
7:16 AM 44.6 °F 43.1 °F 32.0 °F 61% 30.17 in 10.0 mi SSW 3.5 mph - N/A   Clear
7:36 AM 44.6 °F 43.1 °F 30.2 °F 57% 30.18 in 10.0 mi SSW 3.5 mph - N/A   Clear
7:56 AM 46.4 °F 44.3 °F 30.2 °F 53% 30.18 in 10.0 mi SW 4.6 mph - N/A   Clear
8:16 AM 46.4 °F 45.2 °F 33.8 °F 62% 30.18 in 10.0 mi WSW 3.5 mph - N/A   Clear
8:36 AM 46.4 °F 44.3 °F 35.6 °F 66% 30.18 in 10.0 mi West 4.6 mph - N/A   Clear
8:56 AM 46.4 °F 44.3 °F 35.6 °F 66% 30.18 in 10.0 mi West 4.6 mph - N/A   Clear
9:16 AM 46.4 °F 45.2 °F 33.8 °F 62% 30.19 in 10.0 mi West 3.5 mph - N/A   Clear
9:36 AM 48.2 °F - 30.2 °F 50% 30.19 in 10.0 mi WSW 3.5 mph - N/A   Clear
9:56 AM 50.0 °F - 30.2 °F 47% 30.19 in 10.0 mi SW 3.5 mph - N/A   Clear
10:16 AM 51.8 °F - 30.2 °F 44% 30.19 in 10.0 mi SW 3.5 mph - N/A   Clear
10:36 AM 53.6 °F - 30.2 °F 41% 30.19 in 10.0 mi Calm Calm - N/A   Clear
10:56 AM 53.6 °F - 30.2 °F 41% 30.19 in 10.0 mi Calm Calm - N/A   Clear
11:16 AM 53.6 °F - 30.2 °F 41% 30.19 in 10.0 mi Calm Calm - N/A   Clear
11:36 AM 55.4 °F - 30.2 °F 38% 30.19 in 10.0 mi Calm Calm - N/A   Clear
11:56 AM 57.2 °F - 30.2 °F 36% 30.19 in 10.0 mi WSW 3.5 mph - N/A   Clear
12:16 PM 57.2 °F - 32.0 °F 38% 30.19 in 10.0 mi West 3.5 mph - N/A   Clear
12:36 PM 59.0 °F - 33.8 °F 39% 30.18 in 10.0 mi SW 4.6 mph - N/A   Clear
12:56 PM 60.8 °F - 33.8 °F 36% 30.18 in 10.0 mi WSW 3.5 mph - N/A   Clear
1:16 PM 60.8 °F - 33.8 °F 36% 30.18 in 10.0 mi West 4.6 mph - N/A   Clear
1:36 PM 62.6 °F - 33.8 °F 34% 30.18 in 10.0 mi WSW 4.6 mph - N/A   Clear
1:56 PM 62.6 °F - 33.8 °F 34% 30.18 in 10.0 mi West 5.8 mph - N/A   Clear
2:16 PM 64.4 °F - 32.0 °F 30% 30.17 in 10.0 mi West 4.6 mph - N/A   Clear
2:36 PM 64.4 °F - 30.2 °F 28% 30.17 in 10.0 mi SW 4.6 mph - N/A   Clear
2:56 PM 64.4 °F - 32.0 °F 30% 30.17 in 10.0 mi West 3.5 mph - N/A   Clear
3:16 PM 64.4 °F - 32.0 °F 30% 30.17 in 10.0 mi WSW 3.5 mph - N/A   Clear
3:36 PM 64.4 °F - 33.8 °F 32% 30.17 in 10.0 mi WSW 4.6 mph - N/A   Clear
3:56 PM 64.4 °F - 32.0 °F 30% 30.16 in 10.0 mi West 5.8 mph - N/A   Clear
4:16 PM 64.4 °F - 33.8 °F 32% 30.16 in 5.0 mi West 6.9 mph - N/A   Clear
4:36 PM 66.2 °F - 33.8 °F 30% 30.16 in 10.0 mi West 5.8 mph - N/A   Clear
4:56 PM 66.2 °F - 30.2 °F 26% 30.16 in 10.0 mi WSW 4.6 mph - N/A   Clear
5:16 PM 64.4 °F - 32.0 °F 30% 30.16 in 10.0 mi West 4.6 mph - N/A   Clear
5:36 PM 66.2 °F - 30.2 °F 26% 30.15 in 10.0 mi WSW 4.6 mph - N/A   Clear